Weather History for HETB - October, 2012

Change the Weather History Date:

Monday, October 22, 2012

  Actual Average Record
Temperature  
Mean Temperature 68 °F -  
Max Temperature 78 °F - - ()
Min Temperature 57 °F - - ()
Cooling Degree Days 2    
Growing Degree Days 18 (Base 50)    
Moisture  
Dew Point 54 °F    
Average Humidity 62    
Maximum Humidity 82    
Minimum Humidity 36    
Precipitation  
Precipitation 0.00 in - - ()
Sea Level Pressure  
Sea Level Pressure 30.01 in    
Wind  
Wind Speed 1 mph ()    
Max Wind Speed 12 mph    
Max Gust Speed -    
Visibility 6.2 miles    
Events      
T = Trace of Precipitation, MM = Missing Value Source: Averaged Metar Reports

Daily Weather History Graph

Daily Weather History Graph

Search for Another Location

Airport or City:

Trip Planner

Search our weather history database for the weather conditions in past years. The results will help you decide how hot, cold, wet, or windy it might be!

Date:

Astronomy

Oct. 22, 2012 Rise Set
Actual Time 5:47 AM EET 5:03 PM EET
Civil Twilight 5:22 AM EET 5:27 PM EET
Nautical Twilight 4:55 AM EET 5:55 PM EET
Astronomical Twilight 4:27 AM EET 6:22 PM EET
Moon 12:28 PM EET (10/22) 11:45 PM EET (10/22)
Length of Visible Light 12h 04m
Length of Day
11h 15m
First Quarter, 53% of the Moon is Illuminated
Oct 22
First Quarter
Oct 29
Full
Nov 7
Last Quarter
Nov 14
New
Nov 20
First Quarter

Hourly Weather History & Observations

Time (EET) Temp. Dew Point Humidity Pressure Visibility Wind Dir Wind Speed Gust Speed Precip Events Conditions
12:00 AM 66.2 °F 51.8 °F 60% 29.98 in 6.2 mi Calm Calm - N/A   Mostly Cloudy
1:00 AM 66.2 °F 51.8 °F 60% 30.01 in 6.2 mi Calm Calm - N/A   Scattered Clouds
2:00 AM 64.4 °F 51.8 °F 64% 30.01 in 6.2 mi Calm Calm - N/A   Scattered Clouds
3:00 AM 60.8 °F 53.6 °F 77% 29.98 in 6.2 mi Calm Calm - N/A   Scattered Clouds
4:00 AM 59.0 °F 53.6 °F 82% 29.98 in 6.2 mi Calm Calm - N/A   Scattered Clouds
5:00 AM 57.2 °F 51.8 °F 82% 29.98 in 6.2 mi Calm Calm - N/A   Scattered Clouds
6:00 AM 57.2 °F 51.8 °F 82% 30.01 in - Calm Calm - N/A   Clear
7:00 AM 60.8 °F 53.6 °F 77% 30.04 in - Calm Calm - N/A   Clear
8:00 AM 68.0 °F 55.4 °F 64% 30.04 in - Calm Calm - N/A   Clear
9:00 AM 73.4 °F 53.6 °F 50% 30.04 in - Calm Calm - N/A   Clear
10:00 AM 75.2 °F 53.6 °F 47% 30.04 in - Calm Calm - N/A   Clear
11:00 AM 77.0 °F 55.4 °F 47% 30.01 in - Calm Calm - N/A   Clear
12:00 PM 78.8 °F 53.6 °F 42% 29.98 in 6.2 mi SE 3.5 mph - N/A   Unknown
1:00 PM 77.0 °F 53.6 °F 44% 29.98 in 6.2 mi ESE 3.5 mph - N/A   Scattered Clouds
2:00 PM 78.8 °F 50.0 °F 36% 29.98 in 6.2 mi SE 4.6 mph - N/A   Scattered Clouds
3:00 PM 78.8 °F 51.8 °F 39% 29.98 in 6.2 mi ESE 3.5 mph - N/A   Scattered Clouds
4:00 PM 77.0 °F 53.6 °F 44% 29.98 in 6.2 mi Calm Calm - N/A   Mostly Cloudy
5:00 PM 69.8 °F 59.0 °F 68% 30.01 in 6.2 mi WNW 11.5 mph - N/A   Overcast
6:00 PM 68.0 °F 55.4 °F 64% 30.01 in 6.2 mi Calm Calm - N/A   Mostly Cloudy
7:00 PM 68.0 °F 55.4 °F 64% 30.01 in 6.2 mi Calm Calm - N/A   Scattered Clouds
8:00 PM 66.2 °F 57.2 °F 73% 30.04 in 6.2 mi Calm Calm - N/A   Scattered Clouds
9:00 PM 66.2 °F 57.2 °F 73% 30.04 in 6.2 mi Calm Calm - N/A   Scattered Clouds
10:00 PM 64.4 °F 53.6 °F 68% 30.04 in 6.2 mi Calm Calm - N/A   Scattered Clouds
11:00 PM 62.6 °F 53.6 °F 72% 30.04 in - WNW 4.6 mph - N/A   Clear